Location: Marcé
(47.5801°N, 0.3280°W)
Time: 21:47:06
(UTC+02:00)

ACS3 Solar Sail - Pass Details

Date: 19 June 2024
Orbit: 992 x 1023 km, 97.4° (Epoch: 12 July)

Event Time Altitude Azimuth Distance (km) Brightness Sun altitude
Exits shadow 00:27:10 10° 203° (SSW) 2,751 6.8 -15.8°
Maximum altitude 00:32:44 35° 267° (W) 1,565 6.0 -16.2°
Drops below altitude 10° 00:38:22 10° 332° (NNW) 2,770 8.5 -16.5°
Sets 00:41:07 0° 341° (NNW) 3,722 9.7 -16.7°
